TimeCST,TemperatureF,Dew PointF,Humidity,Sea Level PressureIn,VisibilityMPH,Wind Direction,Wind SpeedMPH,Gust SpeedMPH,PrecipitationIn,Events,Conditions,WindDirDegrees,DateUTC
12:56 AM,43.0,37.9,82,30.18,-9999.0,ENE,10.4,-,0.03,,Unknown,70,2013-01-10 06:56:00
1:56 AM,41.0,39.9,96,30.15,-9999.0,ENE,15.0,-,0.08,,Unknown,60,2013-01-10 07:56:00
2:56 AM,41.0,39.9,96,30.12,-9999.0,ENE,11.5,-,0.07,,Unknown,70,2013-01-10 08:56:00
3:56 AM,42.1,39.9,92,30.07,-9999.0,East,10.4,19.6,0.15,,Unknown,80,2013-01-10 09:56:00
4:56 AM,42.1,39.9,92,30.03,-9999.0,East,10.4,-,0.06,,Unknown,80,2013-01-10 10:56:00
5:56 AM,42.1,41.0,96,30.01,-9999.0,East,9.2,-,0.04,,Unknown,80,2013-01-10 11:56:00
6:56 AM,42.1,41.0,96,30.02,-9999.0,South,5.8,-,0.01,,Unknown,180,2013-01-10 12:56:00
7:56 AM,41.0,41.0,100,30.00,-9999.0,East,5.8,-,0.04,,Unknown,90,2013-01-10 13:56:00
8:56 AM,42.1,41.0,96,29.98,-9999.0,ENE,5.8,-,0.04,,Unknown,70,2013-01-10 14:56:00
9:56 AM,43.0,42.1,97,29.96,-9999.0,East,6.9,-,N/A,,Unknown,90,2013-01-10 15:56:00
10:56 AM,43.0,43.0,100,29.93,-9999.0,East,6.9,-,N/A,,Unknown,100,2013-01-10 16:56:00
11:56 AM,44.1,44.1,100,29.91,-9999.0,SE,6.9,-,N/A,,Unknown,130,2013-01-10 17:56:00
12:56 PM,45.0,44.1,97,29.88,-9999.0,South,4.6,-,N/A,,Unknown,180,2013-01-10 18:56:00
1:56 PM,46.0,45.0,96,29.84,-9999.0,South,3.5,-,0.01,,Unknown,170,2013-01-10 19:56:00
2:56 PM,46.0,45.0,96,29.82,-9999.0,SSW,3.5,-,N/A,,Unknown,200,2013-01-10 20:56:00
3:56 PM,46.9,46.0,97,29.79,-9999.0,South,3.5,-,N/A,,Unknown,170,2013-01-10 21:56:00
4:56 PM,46.9,45.0,93,29.81,-9999.0,SSW,5.8,-,N/A,,Unknown,210,2013-01-10 22:56:00
5:56 PM,46.0,45.0,96,29.81,-9999.0,SW,6.9,-,N/A,,Unknown,220,2013-01-10 23:56:00
6:56 PM,46.0,45.0,96,29.81,-9999.0,South,4.6,-,N/A,,Unknown,180,2013-01-11 00:56:00
7:56 PM,45.0,44.1,97,29.77,-9999.0,SE,5.8,-,N/A,,Unknown,140,2013-01-11 01:56:00
8:56 PM,43.0,43.0,100,29.75,-9999.0,SSE,3.5,-,N/A,,Unknown,160,2013-01-11 02:56:00
9:56 PM,41.0,41.0,100,29.76,-9999.0,South,5.8,-,N/A,,Unknown,180,2013-01-11 03:56:00
10:56 PM,43.0,42.1,97,29.77,-9999.0,South,10.4,-,N/A,,Unknown,190,2013-01-11 04:56:00
11:56 PM,43.0,43.0,100,29.74,-9999.0,South,11.5,-,N/A,,Unknown,180,2013-01-11 05:56:00